PAL319 VHHH-RPLL

Flight info

Callsign PAL319
Flight time N/A
Altitude 37000
Route DALOL DCT NOMAN A461 CAB CAB5R
Aircraft A35K/H-SDE2E3GHIJ3J4J5LM1ORWXY/LB1D1

Departure

Time 2026-05-04 13:26
Airport Hong Kong International Airport (VHHH)

Arrival

Time N/A
Airport Ninoy Aquino International Airport (RPLL)
Time Latitude Longitude Altitude Speed Heading
2026-05-04 12:56 22.31506 113.92476 43 ft 0 kts 206°
2026-05-04 13:11 22.31509 113.92478 43 ft 3 kts 206°
2026-05-04 13:11 22.31534 113.92491 42 ft 4 kts 206°
2026-05-04 13:11 22.31558 113.92503 41 ft 4 kts 206°
2026-05-04 13:12 22.31576 113.92513 39 ft 4 kts 219°
2026-05-04 13:12 22.31589 113.92526 41 ft 4 kts 258°
2026-05-04 13:12 22.31589 113.92547 37 ft 4 kts 293°
2026-05-04 13:12 22.31578 113.92571 38 ft 4 kts 296°
2026-05-04 13:13 22.31573 113.92583 40 ft 0 kts 296°
2026-05-04 13:17 22.31574 113.92582 37 ft 1 kts 302°
2026-05-04 13:17 22.31580 113.92569 38 ft 3 kts 297°
2026-05-04 13:18 22.31591 113.92545 37 ft 1 kts 296°
2026-05-04 13:18 22.31599 113.92527 40 ft 4 kts 295°
2026-05-04 13:18 22.31617 113.92486 43 ft 7 kts 298°
2026-05-04 13:18 22.31662 113.92447 43 ft 10 kts 335°
2026-05-04 13:19 22.31724 113.92415 43 ft 8 kts 318°
2026-05-04 13:19 22.31738 113.92376 43 ft 9 kts 273°
2026-05-04 13:19 22.31711 113.92273 43 ft 13 kts 250°
2026-05-04 13:19 22.31679 113.92174 42 ft 15 kts 251°
2026-05-04 13:20 22.31641 113.92056 42 ft 18 kts 250°
2026-05-04 13:20 22.31597 113.91922 42 ft 20 kts 250°
2026-05-04 13:20 22.31549 113.91772 42 ft 22 kts 250°
2026-05-04 13:20 22.31497 113.91610 43 ft 24 kts 251°
2026-05-04 13:21 22.31441 113.91437 43 ft 25 kts 251°
2026-05-04 13:21 22.31384 113.91261 44 ft 21 kts 250°
2026-05-04 13:21 22.31337 113.91115 44 ft 21 kts 251°
2026-05-04 13:21 22.31286 113.90957 43 ft 23 kts 251°
2026-05-04 13:22 22.31249 113.90845 43 ft 25 kts 251°
2026-05-04 13:22 22.31190 113.90661 43 ft 27 kts 251°
2026-05-04 13:22 22.31134 113.90488 43 ft 19 kts 249°
2026-05-04 13:22 22.31087 113.90342 42 ft 22 kts 250°
2026-05-04 13:23 22.31036 113.90184 43 ft 23 kts 252°
2026-05-04 13:23 22.30980 113.90012 43 ft 25 kts 250°
2026-05-04 13:23 22.30948 113.89913 43 ft 9 kts 250°
2026-05-04 13:23 22.30930 113.89841 43 ft 9 kts 271°
2026-05-04 13:24 22.30965 113.89804 43 ft 8 kts 333°
2026-05-04 13:24 22.31026 113.89777 42 ft 11 kts 341°
2026-05-04 13:24 22.31086 113.89786 42 ft 8 kts 45°
2026-05-04 13:25 22.31114 113.89855 42 ft 0 kts 72°
2026-05-04 13:25 22.31116 113.89861 42 ft 2 kts 72°
2026-05-04 13:25 22.31122 113.89883 43 ft 4 kts 71°
2026-05-04 13:25 22.31168 113.90030 43 ft 52 kts 70°
2026-05-04 13:26 22.31366 113.90646 42 ft 119 kts 71°
2026-05-04 13:26 22.31709 113.91674 109 ft 168 kts 71°
2026-05-04 13:26 22.32107 113.92819 986 ft 159 kts 70°
2026-05-04 13:26 22.32494 113.93945 1818 ft 160 kts 71°
2026-05-04 13:27 22.32828 113.95048 2553 ft 152 kts 76°
2026-05-04 13:27 22.33164 113.96180 2822 ft 169 kts 74°
2026-05-04 13:27 22.33473 113.97489 3058 ft 188 kts 81°
2026-05-04 13:27 22.33714 113.98950 3322 ft 206 kts 82°
2026-05-04 13:28 22.33826 114.00538 3564 ft 223 kts 94°
2026-05-04 13:28 22.33477 114.02247 3818 ft 244 kts 114°
2026-05-04 13:28 22.32508 114.03806 4360 ft 255 kts 136°
2026-05-04 13:28 22.31072 114.04980 4926 ft 262 kts 150°
2026-05-04 13:29 22.29496 114.05984 5460 ft 270 kts 152°
2026-05-04 13:29 22.27850 114.07023 6034 ft 276 kts 152°
2026-05-04 13:29 22.26185 114.08061 6595 ft 280 kts 155°
2026-05-04 13:29 22.24403 114.08970 7135 ft 286 kts 151°
2026-05-04 13:30 22.22894 114.10400 7763 ft 290 kts 137°
2026-05-04 13:30 22.21478 114.11936 8326 ft 293 kts 138°
2026-05-04 13:30 22.20002 114.13500 8929 ft 297 kts 139°
2026-05-04 13:30 22.18530 114.15039 9547 ft 300 kts 139°
2026-05-04 13:31 22.17013 114.16615 10148 ft 303 kts 139°
2026-05-04 13:31 22.15455 114.18225 10473 ft 317 kts 140°
2026-05-04 13:31 22.13809 114.19919 10722 ft 332 kts 139°
2026-05-04 13:31 22.12123 114.21655 10994 ft 345 kts 139°
2026-05-04 13:32 22.10356 114.23476 11268 ft 358 kts 139°
2026-05-04 13:32 22.08654 114.25522 11522 ft 373 kts 129°
2026-05-04 13:32 22.07162 114.27882 11753 ft 385 kts 125°
2026-05-04 13:32 22.05710 114.30343 12098 ft 392 kts 124°
2026-05-04 13:33 22.04253 114.32852 12515 ft 396 kts 124°
2026-05-04 13:33 22.02803 114.35360 12912 ft 400 kts 124°
2026-05-04 13:33 22.01324 114.37926 13335 ft 403 kts 124°
2026-05-04 13:33 21.99849 114.40485 13769 ft 405 kts 124°
2026-05-04 13:34 21.98372 114.43047 14140 ft 408 kts 124°
2026-05-04 13:34 21.96865 114.45663 14510 ft 411 kts 124°
2026-05-04 13:34 21.95345 114.48301 14897 ft 414 kts 124°
2026-05-04 13:34 21.93838 114.50912 15268 ft 416 kts 124°
2026-05-04 13:35 21.92297 114.53584 15658 ft 419 kts 124°
2026-05-04 13:35 21.89212 114.58925 16451 ft 423 kts 124°
2026-05-04 13:35 21.87648 114.61634 16836 ft 426 kts 124°
2026-05-04 13:36 21.86077 114.64351 17214 ft 428 kts 124°
2026-05-04 13:36 21.84508 114.67064 17608 ft 431 kts 124°
2026-05-04 13:36 21.82910 114.69826 17972 ft 434 kts 124°
2026-05-04 13:36 21.81300 114.72607 18310 ft 437 kts 124°
2026-05-04 13:37 21.79711 114.75351 18621 ft 440 kts 124°
2026-05-04 13:37 21.78083 114.78160 18941 ft 442 kts 124°
2026-05-04 13:37 21.76448 114.80980 19258 ft 444 kts 124°
2026-05-04 13:37 21.74752 114.83786 19564 ft 445 kts 129°
2026-05-04 13:38 21.72801 114.86331 19872 ft 445 kts 135°
2026-05-04 13:38 21.70658 114.88765 20188 ft 446 kts 138°
2026-05-04 13:38 21.68470 114.91089 20499 ft 447 kts 139°
2026-05-04 13:38 21.66217 114.93421 20805 ft 449 kts 140°
2026-05-04 13:39 21.63949 114.95760 21109 ft 451 kts 140°
2026-05-04 13:39 21.61701 114.98094 21399 ft 453 kts 139°
2026-05-04 13:39 21.59428 115.00475 21705 ft 455 kts 139°
2026-05-04 13:39 21.57164 115.02864 21999 ft 457 kts 139°
2026-05-04 13:40 21.54912 115.05250 22296 ft 459 kts 139°
2026-05-04 13:40 21.52621 115.07681 22601 ft 461 kts 139°
2026-05-04 13:40 21.50323 115.10120 22885 ft 463 kts 139°
2026-05-04 13:40 21.48024 115.12561 23169 ft 465 kts 139°
2026-05-04 13:41 21.45728 115.14995 23455 ft 467 kts 139°
2026-05-04 13:41 21.43401 115.17461 23716 ft 469 kts 139°
2026-05-04 13:41 21.41087 115.19912 23952 ft 470 kts 139°
2026-05-04 13:42 21.36431 115.24837 24428 ft 473 kts 139°
2026-05-04 13:42 21.34080 115.27322 24667 ft 474 kts 139°
2026-05-04 13:42 21.31724 115.29811 24902 ft 475 kts 139°
2026-05-04 13:42 21.29376 115.32290 25136 ft 477 kts 139°
2026-05-04 13:43 21.27000 115.34798 25361 ft 478 kts 139°
2026-05-04 13:43 21.24629 115.37300 25610 ft 479 kts 140°
2026-05-04 13:43 21.22266 115.39791 25847 ft 480 kts 140°
2026-05-04 13:43 21.19865 115.42322 26084 ft 482 kts 140°
2026-05-04 13:44 21.17490 115.44823 26313 ft 483 kts 140°
2026-05-04 13:44 21.15087 115.47354 26551 ft 485 kts 140°
2026-05-04 13:44 21.12662 115.49906 26784 ft 486 kts 140°
2026-05-04 13:44 21.10235 115.52459 27018 ft 488 kts 140°
2026-05-04 13:45 21.07839 115.54978 27253 ft 489 kts 140°
2026-05-04 13:45 21.05402 115.57539 27495 ft 491 kts 140°
2026-05-04 13:45 21.02938 115.60128 27725 ft 493 kts 140°
2026-05-04 13:45 21.00507 115.62679 27962 ft 494 kts 140°
2026-05-04 13:46 20.98041 115.65267 28199 ft 496 kts 140°
2026-05-04 13:46 20.95585 115.67843 28436 ft 498 kts 140°
2026-05-04 13:46 20.93094 115.70455 28683 ft 499 kts 140°
2026-05-04 13:46 20.90606 115.73062 28917 ft 501 kts 140°
2026-05-04 13:47 20.88138 115.75647 29151 ft 503 kts 140°
2026-05-04 13:47 20.85622 115.78280 29392 ft 505 kts 140°
2026-05-04 13:47 20.83096 115.80923 29623 ft 506 kts 140°
2026-05-04 13:47 20.80602 115.83532 29851 ft 508 kts 140°
2026-05-04 13:48 20.78050 115.86200 30083 ft 510 kts 140°
2026-05-04 13:48 20.75510 115.88854 30275 ft 512 kts 140°
2026-05-04 13:48 20.72980 115.91495 30461 ft 514 kts 140°
2026-05-04 13:48 20.70406 115.94181 30652 ft 516 kts 140°
2026-05-04 13:49 20.67858 115.96840 30847 ft 517 kts 140°
2026-05-04 13:49 20.65270 115.99537 31045 ft 519 kts 140°
2026-05-04 13:49 20.62681 116.02236 31237 ft 521 kts 140°
2026-05-04 13:49 20.60064 116.04962 31435 ft 523 kts 140°
2026-05-04 13:50 20.57485 116.07647 31626 ft 524 kts 140°
2026-05-04 13:50 20.54862 116.10377 31801 ft 526 kts 140°
2026-05-04 13:50 20.52216 116.13129 31972 ft 528 kts 140°
2026-05-04 13:50 20.49600 116.15849 32214 ft 528 kts 139°
2026-05-04 13:51 20.46958 116.18595 32494 ft 527 kts 139°
2026-05-04 13:51 20.44349 116.21305 32763 ft 527 kts 139°
2026-05-04 13:51 20.41707 116.24049 33034 ft 527 kts 139°
2026-05-04 13:51 20.39106 116.26748 33324 ft 526 kts 139°
2026-05-04 13:52 20.33870 116.32177 33912 ft 526 kts 139°
2026-05-04 13:52 20.31232 116.34909 34205 ft 525 kts 139°
2026-05-04 13:52 20.28609 116.37626 34470 ft 525 kts 139°
2026-05-04 13:53 20.26005 116.40320 34749 ft 524 kts 140°
2026-05-04 13:53 20.23377 116.43038 35034 ft 524 kts 140°
2026-05-04 13:53 20.20785 116.45718 35303 ft 524 kts 140°
2026-05-04 13:54 20.15525 116.51151 35867 ft 524 kts 140°
2026-05-04 13:54 20.12922 116.53838 36153 ft 524 kts 140°
2026-05-04 13:54 20.07710 116.59215 36710 ft 524 kts 140°
2026-05-04 13:55 20.05073 116.61933 36957 ft 524 kts 139°
2026-05-04 13:55 19.97296 116.70042 37011 ft 525 kts 137°
2026-05-04 13:56 19.92357 116.75814 37015 ft 525 kts 135°
2026-05-04 13:57 19.85051 116.84486 37005 ft 524 kts 135°
2026-05-04 13:58 19.75228 116.95883 37016 ft 523 kts 136°
2026-05-04 13:58 19.67845 117.04406 37006 ft 523 kts 136°
2026-05-04 13:59 19.62931 117.10075 37001 ft 522 kts 136°
2026-05-04 14:00 19.55559 117.18573 37002 ft 522 kts 136°
2026-05-04 14:00 19.48170 117.27078 37001 ft 522 kts 136°
2026-05-04 14:01 19.43267 117.32713 36999 ft 522 kts 136°
2026-05-04 14:02 19.35900 117.41173 36997 ft 521 kts 136°
2026-05-04 14:02 19.30989 117.46805 36992 ft 521 kts 136°
2026-05-04 14:03 19.26078 117.52432 36993 ft 521 kts 136°
2026-05-04 14:03 19.21131 117.58094 36995 ft 521 kts 136°
2026-05-04 14:04 19.13778 117.66500 36997 ft 521 kts 136°
2026-05-04 14:04 19.08844 117.72135 36989 ft 520 kts 136°
2026-05-04 14:05 19.02271 117.79634 36987 ft 520 kts 136°
2026-05-04 14:06 18.98198 117.84278 36987 ft 520 kts 136°
2026-05-04 14:06 18.91627 117.91755 36982 ft 519 kts 136°
2026-05-04 14:07 18.86723 117.97330 36980 ft 519 kts 136°
2026-05-04 14:07 18.81830 118.02889 36984 ft 519 kts 136°
2026-05-04 14:08 18.76921 118.08461 36979 ft 518 kts 136°
2026-05-04 14:08 18.72828 118.13103 36976 ft 518 kts 136°
2026-05-04 14:09 18.65464 118.21445 36979 ft 518 kts 136°
2026-05-04 14:10 18.58086 118.29792 36973 ft 518 kts 136°
2026-05-04 14:10 18.53157 118.35362 36974 ft 517 kts 136°
2026-05-04 14:11 18.48265 118.40884 36970 ft 517 kts 136°
2026-05-04 14:11 18.40900 118.49190 36965 ft 517 kts 136°
2026-05-04 14:12 18.35997 118.54713 36964 ft 517 kts 136°
2026-05-04 14:13 18.28622 118.63012 36967 ft 517 kts 136°
2026-05-04 14:13 18.23723 118.68518 36961 ft 517 kts 136°
2026-05-04 14:14 18.18811 118.74035 36961 ft 517 kts 136°
2026-05-04 14:14 18.11428 118.82316 36963 ft 517 kts 136°
2026-05-04 14:15 18.01588 118.93338 36958 ft 517 kts 136°
2026-05-04 14:16 17.94210 119.01585 36956 ft 516 kts 136°
2026-05-04 14:17 17.86814 119.09844 36952 ft 516 kts 136°
2026-05-04 14:18 17.79466 119.18038 36953 ft 515 kts 136°
2026-05-04 14:19 17.69646 119.28973 36947 ft 515 kts 136°
2026-05-04 14:19 17.64730 119.34440 36943 ft 515 kts 136°
2026-05-04 14:20 17.59798 119.39919 36940 ft 515 kts 136°
2026-05-04 14:20 17.54893 119.45365 36939 ft 515 kts 136°
2026-05-04 14:21 17.47515 119.53546 36939 ft 515 kts 136°
2026-05-04 14:21 17.42615 119.58974 36934 ft 515 kts 136°
2026-05-04 14:22 17.37690 119.64425 36934 ft 515 kts 136°
2026-05-04 14:22 17.32772 119.69865 36935 ft 515 kts 136°
2026-05-04 14:23 17.25393 119.78017 36929 ft 515 kts 136°
2026-05-04 14:24 17.20438 119.83486 36931 ft 515 kts 136°
2026-05-04 14:24 17.15521 119.88908 36929 ft 515 kts 136°
2026-05-04 14:25 17.10604 119.94326 36931 ft 515 kts 136°
2026-05-04 14:25 17.03197 120.02479 36931 ft 515 kts 136°
2026-05-04 14:26 16.98295 120.07869 36926 ft 515 kts 136°
2026-05-04 14:26 16.93343 120.13309 36929 ft 515 kts 136°
2026-05-04 14:27 16.88429 120.18704 36932 ft 515 kts 136°
2026-05-04 14:27 16.85131 120.22323 36933 ft 515 kts 136°
2026-05-04 14:28 16.78544 120.29543 36944 ft 515 kts 136°
2026-05-04 14:28 16.73544 120.34835 36950 ft 512 kts 143°
2026-05-04 14:29 16.67487 120.38652 36958 ft 507 kts 155°
2026-05-04 14:29 16.61242 120.42032 36967 ft 508 kts 155°
2026-05-04 14:30 16.54945 120.45422 36973 ft 508 kts 155°
2026-05-04 14:31 16.45544 120.50472 36986 ft 508 kts 155°
2026-05-04 14:32 16.32983 120.57210 36645 ft 507 kts 155°
2026-05-04 14:32 16.29832 120.58898 36401 ft 509 kts 155°
2026-05-04 14:32 16.26664 120.60595 36164 ft 510 kts 155°
2026-05-04 14:32 16.23544 120.62265 35725 ft 507 kts 155°
2026-05-04 14:33 16.20399 120.63950 35074 ft 508 kts 155°
2026-05-04 14:33 16.17250 120.65635 34340 ft 510 kts 155°
2026-05-04 14:33 16.14073 120.67334 33503 ft 513 kts 154°
2026-05-04 14:33 16.10914 120.69022 32669 ft 515 kts 154°
2026-05-04 14:34 16.07744 120.70717 31843 ft 517 kts 154°
2026-05-04 14:34 16.04535 120.72431 31024 ft 518 kts 154°
2026-05-04 14:34 16.01311 120.74154 30210 ft 518 kts 154°
2026-05-04 14:34 15.98144 120.75845 29343 ft 517 kts 154°
2026-05-04 14:35 15.94942 120.77554 28577 ft 514 kts 154°
2026-05-04 14:35 15.91767 120.79249 27913 ft 509 kts 153°
2026-05-04 14:35 15.88626 120.80925 27279 ft 503 kts 153°
2026-05-04 14:35 15.85530 120.82577 26654 ft 499 kts 153°
2026-05-04 14:36 15.82447 120.84220 26018 ft 494 kts 153°
2026-05-04 14:36 15.79431 120.85827 25395 ft 490 kts 153°
2026-05-04 14:36 15.76404 120.87440 24779 ft 486 kts 153°
2026-05-04 14:36 15.73404 120.89038 24153 ft 482 kts 153°
2026-05-04 14:37 15.70424 120.90625 23599 ft 478 kts 153°
2026-05-04 14:37 15.67539 120.92161 23449 ft 463 kts 153°
2026-05-04 14:37 15.64712 120.93666 23271 ft 447 kts 153°
2026-05-04 14:37 15.61981 120.95119 23090 ft 434 kts 153°
2026-05-04 14:38 15.59327 120.96530 22898 ft 422 kts 153°
2026-05-04 14:38 15.56741 120.97904 22708 ft 410 kts 153°
2026-05-04 14:38 15.54240 120.99234 22531 ft 399 kts 153°
2026-05-04 14:38 15.51812 121.00523 22355 ft 388 kts 153°
2026-05-04 14:39 15.49343 121.01564 22134 ft 378 kts 167°
2026-05-04 14:39 15.46779 121.01708 21922 ft 369 kts 188°
2026-05-04 14:39 15.44344 121.01002 21669 ft 362 kts 200°
2026-05-04 14:40 15.39764 120.99157 20395 ft 346 kts 201°
2026-05-04 14:40 15.37530 120.98257 20000 ft 342 kts 200°
2026-05-04 14:40 15.35303 120.97370 19621 ft 340 kts 200°
2026-05-04 14:40 15.33117 120.96504 19258 ft 339 kts 200°
2026-05-04 14:41 15.30905 120.95633 18891 ft 338 kts 200°
2026-05-04 14:41 15.28706 120.94768 18519 ft 337 kts 200°
2026-05-04 14:41 15.24360 120.93061 17741 ft 334 kts 200°
2026-05-04 14:42 15.20041 120.91366 17002 ft 329 kts 200°
2026-05-04 14:42 15.17926 120.90537 16650 ft 326 kts 199°
2026-05-04 14:43 15.13632 120.88853 15918 ft 322 kts 199°
2026-05-04 14:43 15.11538 120.88033 15559 ft 320 kts 199°
2026-05-04 14:43 15.09452 120.87216 15204 ft 318 kts 199°
2026-05-04 14:43 15.07382 120.86405 14850 ft 316 kts 199°
2026-05-04 14:44 15.05357 120.85612 14496 ft 314 kts 199°
2026-05-04 14:44 15.03305 120.84809 14147 ft 313 kts 199°
2026-05-04 14:44 15.01283 120.84017 13793 ft 311 kts 199°
2026-05-04 14:44 14.99258 120.83225 13420 ft 309 kts 199°
2026-05-04 14:45 14.97237 120.82434 13061 ft 307 kts 199°
2026-05-04 14:45 14.95274 120.81667 12710 ft 304 kts 198°
2026-05-04 14:45 14.93286 120.80895 12346 ft 302 kts 198°
2026-05-04 14:45 14.91320 120.80129 11985 ft 301 kts 198°
2026-05-04 14:46 14.89389 120.79372 11645 ft 299 kts 198°
2026-05-04 14:46 14.87435 120.78608 11304 ft 297 kts 198°
2026-05-04 14:46 14.85501 120.77852 10964 ft 295 kts 198°
2026-05-04 14:46 14.83607 120.77112 10690 ft 292 kts 198°
2026-05-04 14:47 14.81705 120.76372 10350 ft 291 kts 198°
2026-05-04 14:47 14.79809 120.75633 10021 ft 290 kts 198°
2026-05-04 14:47 14.77905 120.74892 9689 ft 299 kts 197°
2026-05-04 14:47 14.75945 120.74131 9455 ft 305 kts 198°
2026-05-04 14:48 14.73942 120.73351 9139 ft 305 kts 198°
2026-05-04 14:48 14.71954 120.72577 8697 ft 305 kts 198°
2026-05-04 14:48 14.69982 120.71810 8285 ft 304 kts 198°
2026-05-04 14:48 14.68026 120.71046 8108 ft 294 kts 198°
2026-05-04 14:49 14.66138 120.70309 7954 ft 284 kts 198°
2026-05-04 14:49 14.64310 120.69597 7670 ft 280 kts 198°
2026-05-04 14:49 14.62461 120.69024 7353 ft 274 kts 185°
2026-05-04 14:49 14.60628 120.69202 7019 ft 264 kts 156°
2026-05-04 14:50 14.58989 120.70032 6705 ft 259 kts 147°
2026-05-04 14:50 14.57954 120.70649 6509 ft 258 kts 147°
2026-05-04 14:50 14.56409 120.71579 6204 ft 255 kts 147°
2026-05-04 14:50 14.54877 120.72493 5978 ft 251 kts 147°
2026-05-04 14:51 14.52891 120.73626 5799 ft 239 kts 153°
2026-05-04 14:51 14.51831 120.73895 5722 ft 237 kts 174°
2026-05-04 14:51 14.50223 120.73553 5631 ft 240 kts 205°
2026-05-04 14:51 14.48967 120.72441 5540 ft 243 kts 231°
2026-05-04 14:52 14.47999 120.70995 5427 ft 244 kts 236°
2026-05-04 14:52 14.47097 120.69501 5328 ft 244 kts 237°
2026-05-04 14:52 14.46216 120.68024 5211 ft 244 kts 237°
2026-05-04 14:52 14.45155 120.66656 5120 ft 241 kts 216°
2026-05-04 14:53 14.43674 120.65983 5030 ft 234 kts 185°
2026-05-04 14:53 14.42091 120.66179 5012 ft 227 kts 156°
2026-05-04 14:53 14.40686 120.66878 5002 ft 226 kts 148°
2026-05-04 14:53 14.39316 120.67682 4997 ft 227 kts 147°
2026-05-04 14:54 14.37943 120.68505 4993 ft 227 kts 147°
2026-05-04 14:54 14.36612 120.69362 4998 ft 230 kts 140°
2026-05-04 14:54 14.35484 120.70639 5003 ft 240 kts 118°
2026-05-04 14:54 14.35088 120.72230 4851 ft 227 kts 84°
2026-05-04 14:55 14.35681 120.73657 4675 ft 216 kts 50°
2026-05-04 14:55 14.36514 120.74878 4364 ft 200 kts 68°
2026-05-04 14:55 14.37043 120.76152 4105 ft 187 kts 69°
2026-05-04 14:55 14.37560 120.77369 3688 ft 185 kts 67°
2026-05-04 14:56 14.38101 120.78566 3425 ft 183 kts 66°
2026-05-04 14:56 14.38651 120.79732 3273 ft 183 kts 66°
2026-05-04 14:56 14.39220 120.80916 3166 ft 184 kts 65°
2026-05-04 14:56 14.39841 120.82186 2473 ft 216 kts 64°
2026-05-04 14:57 14.40566 120.83602 1770 ft 242 kts 63°
2026-05-04 14:57 14.41397 120.85103 1793 ft 233 kts 60°
2026-05-04 14:57 14.42215 120.86412 2312 ft 210 kts 58°